| time (UTC) | temp F | wind direction | speed knots | gust knots | rain 1hr in | rain 24hr in | rain mn in | humidity % | barometer mb |
| 20260504000029 | 60 | 252 | 0.0 | 1.7 | 0.00 | 0.00 | 0.00 | 40 | 1016.7 |
| 20260503235514 | 60 | 252 | 0.0 | 1.7 | 0.00 | 0.00 | 0.00 | 41 | 1017.0 |
| 20260503235012 | 61 | 252 | 0.0 | 1.7 | 0.00 | 0.00 | 0.00 | 39 | 1016.8 |
| 20260503234529 | 61 | 252 | 0.0 | 1.7 | 0.00 | 0.00 | 0.00 | 37 | 1016.8 |
| 20260503234012 | 61 | 360 | 0.9 | 1.7 | 0.00 | 0.00 | 0.00 | 36 | 1016.7 |
| 20260503233511 | 61 | 360 | 0.0 | 1.7 | 0.00 | 0.00 | 0.00 | 38 | 1016.8 |
| 20260503233029 | 61 | 360 | 0.0 | 1.7 | 0.00 | 0.00 | 0.00 | 35 | 1016.7 |
| 20260503232511 | 61 | 260 | 0.0 | 2.6 | 0.00 | 0.00 | 0.00 | 35 | 1016.7 |
| 20260503232010 | 61 | 279 | 0.9 | 3.5 | 0.00 | 0.00 | 0.00 | 34 | 1016.8 |
| 20260503231532 | 62 | 287 | 0.9 | 3.5 | 0.00 | 0.00 | 0.00 | 34 | 1016.7 |
| 20260503231013 | 62 | 297 | 0.0 | 4.3 | 0.00 | 0.00 | 0.00 | 34 | 1016.7 |
| 20260503230512 | 62 | 268 | 0.9 | 4.3 | 0.00 | 0.00 | 0.00 | 34 | 1016.7 |
| 20260503230032 | 62 | 275 | 0.9 | 4.3 | 0.00 | 0.00 | 0.00 | 33 | 1016.7 |
| 20260503225512 | 62 | 264 | 1.7 | 4.3 | 0.00 | 0.00 | 0.00 | 33 | 1016.7 |
| 20260503225012 | 62 | 281 | 0.9 | 4.3 | 0.00 | 0.00 | 0.00 | 33 | 1016.7 |
| 20260503224529 | 62 | 360 | 2.6 | 7.0 | 0.00 | 0.00 | 0.00 | 33 | 1016.7 |
| 20260503224012 | 62 | 360 | 2.6 | 7.0 | 0.00 | 0.00 | 0.00 | 32 | 1016.7 |
| 20260503223513 | 62 | 270 | 1.7 | 4.3 | 0.00 | 0.00 | 0.00 | 33 | 1016.5 |
| 20260503223028 | 62 | 314 | 0.9 | 6.1 | 0.00 | 0.00 | 0.00 | 32 | 1016.5 |
| 20260503222510 | 62 | 219 | 2.6 | 6.1 | 0.00 | 0.00 | 0.00 | 32 | 1016.6 |
| 20260503222010 | 62 | 301 | 0.9 | 6.1 | 0.00 | 0.00 | 0.00 | 33 | 1016.8 |
| 20260503221528 | 62 | 11 | 1.7 | 5.2 | 0.00 | 0.00 | 0.00 | 33 | 1016.8 |
| 20260503221010 | 62 | 304 | 1.7 | 5.2 | 0.00 | 0.00 | 0.00 | 32 | 1016.6 |
| 20260503220514 | 62 | 347 | 1.7 | 5.2 | 0.00 | 0.00 | 0.00 | 32 | 1016.6 |
| 20260503220032 | 62 | 234 | 2.6 | 5.2 | 0.00 | 0.00 | 0.00 | 32 | 1016.8 |
| 20260503215511 | 62 | 318 | 1.7 | 6.1 | 0.00 | 0.00 | 0.00 | 33 | 1016.7 |
| 20260503215011 | 62 | 285 | 1.7 | 7.0 | 0.00 | 0.00 | 0.00 | 32 | 1016.5 |
| 20260503214540 | 62 | 345 | 0.9 | 7.0 | 0.00 | 0.00 | 0.00 | 33 | 1016.6 |
| 20260503214012 | 62 | 281 | 2.6 | 6.1 | 0.00 | 0.00 | 0.00 | 32 | 1016.6 |
| 20260503213512 | 62 | 272 | 1.7 | 7.8 | 0.00 | 0.00 | 0.00 | 31 | 1016.6 |
| 20260503213030 | 62 | 261 | 1.7 | 7.8 | 0.00 | 0.00 | 0.00 | 32 | 1016.7 |
| 20260503212512 | 62 | 284 | 2.6 | 7.0 | 0.00 | 0.00 | 0.00 | 32 | 1016.5 |
| 20260503212013 | 62 | 360 | 1.7 | 7.8 | 0.00 | 0.00 | 0.00 | 31 | 1016.7 |
| 20260503211529 | 61 | 342 | 2.6 | 9.6 | 0.00 | 0.00 | 0.00 | 33 | 1016.6 |
| 20260503211011 | 61 | 284 | 4.3 | 10.4 | 0.00 | 0.00 | 0.00 | 32 | 1016.7 |
| 20260503210510 | 61 | 329 | 4.3 | 10.4 | 0.00 | 0.00 | 0.00 | 32 | 1016.7 |
| 20260503210032 | 61 | 254 | 2.6 | 7.8 | 0.00 | 0.00 | 0.00 | 32 | 1016.7 |
| 20260503205510 | 61 | 284 | 3.5 | 9.6 | 0.00 | 0.00 | 0.00 | 32 | 1016.7 |
| 20260503205013 | 61 | 302 | 3.5 | 9.6 | 0.00 | 0.00 | 0.00 | 31 | 1016.5 |
| 20260503204534 | 61 | 302 | 2.6 | 9.6 | 0.00 | 0.00 | 0.00 | 31 | 1016.4 |
| 20260503204011 | 61 | 316 | 3.5 | 10.4 | 0.00 | 0.00 | 0.00 | 31 | 1016.6 |
| 20260503203511 | 61 | 296 | 3.5 | 10.4 | 0.00 | 0.00 | 0.00 | 33 | 1016.5 |
| 20260503203039 | 61 | 57 | 3.5 | 9.6 | 0.00 | 0.00 | 0.00 | 32 | 1016.5 |
| 20260503202513 | 61 | 288 | 1.7 | 7.8 | 0.00 | 0.00 | 0.00 | 33 | 1016.5 |
| 20260503202012 | 60 | 279 | 3.5 | 11.3 | 0.00 | 0.00 | 0.00 | 32 | 1016.5 |
| 20260503201532 | 60 | 271 | 5.2 | 11.3 | 0.00 | 0.00 | 0.00 | 31 | 1016.6 |
| 20260503201014 | 60 | 348 | 3.5 | 11.3 | 0.00 | 0.00 | 0.00 | 32 | 1016.6 |
| 20260503200513 | 60 | 75 | 4.3 | 12.2 | 0.00 | 0.00 | 0.00 | 33 | 1016.8 |
| 20260503200051 | 60 | 340 | 4.3 | 12.2 | 0.00 | 0.00 | 0.00 | 32 | 1016.7 |
| 20260503195512 | 60 | 325 | 5.2 | 12.2 | 0.00 | 0.00 | 0.00 | 31 | 1016.6 |
| 20260503195010 | 60 | 69 | 1.7 | 12.2 | 0.00 | 0.00 | 0.00 | 34 | 1017.2 |
| 20260503194530 | 60 | 328 | 3.5 | 11.3 | 0.00 | 0.00 | 0.00 | 33 | 1017.2 |
| 20260503194010 | 60 | 315 | 2.6 | 11.3 | 0.00 | 0.00 | 0.00 | 33 | 1017.2 |
| 20260503193511 | 60 | 44 | 5.2 | 10.4 | 0.00 | 0.00 | 0.00 | 33 | 1017.1 |
| 20260503193036 | 60 | 256 | 4.3 | 12.2 | 0.00 | 0.00 | 0.00 | 33 | 1017.2 |
| 20260503192512 | 60 | 281 | 4.3 | 12.2 | 0.00 | 0.00 | 0.00 | 33 | 1017.3 |
| 20260503192013 | 60 | 59 | 2.6 | 9.6 | 0.00 | 0.00 | 0.00 | 34 | 1017.4 |
| 20260503191534 | 60 | 331 | 4.3 | 10.4 | 0.00 | 0.00 | 0.00 | 34 | 1017.4 |
| 20260503191013 | 60 | 346 | 3.5 | 13.0 | 0.00 | 0.00 | 0.00 | 35 | 1017.7 |
| 20260503190513 | 59 | 281 | 4.3 | 13.0 | 0.00 | 0.00 | 0.00 | 35 | 1017.7 |
| 20260503190036 | 59 | 335 | 3.5 | 11.3 | 0.00 | 0.00 | 0.00 | 34 | 1017.5 |
| 20260503185512 | 59 | 304 | 3.5 | 13.9 | 0.00 | 0.00 | 0.00 | 34 | 1017.6 |
| 20260503185013 | 59 | 290 | 3.5 | 13.9 | 0.00 | 0.00 | 0.00 | 35 | 1017.7 |
| 20260503184541 | 59 | 286 | 6.1 | 10.4 | 0.00 | 0.00 | 0.00 | 35 | 1017.6 |
| 20260503184013 | 59 | 352 | 5.2 | 12.2 | 0.00 | 0.00 | 0.00 | 35 | 1017.8 |
| 20260503183512 | 59 | 281 | 5.2 | 12.2 | 0.00 | 0.00 | 0.00 | 36 | 1017.7 |
| 20260503183040 | 59 | 333 | 2.6 | 11.3 | 0.00 | 0.00 | 0.00 | 35 | 1017.9 |
| 20260503182512 | 58 | 318 | 3.5 | 10.4 | 0.00 | 0.00 | 0.00 | 37 | 1017.9 |
| 20260503182015 | 58 | 305 | 5.2 | 12.2 | 0.00 | 0.00 | 0.00 | 37 | 1017.8 |
| 20260503181547 | 58 | 211 | 6.1 | 13.0 | 0.00 | 0.00 | 0.00 | 36 | 1017.8 |
| 20260503181013 | 58 | 252 | 2.6 | 13.0 | 0.00 | 0.00 | 0.00 | 37 | 1017.8 |
| 20260503180512 | 58 | 9 | 5.2 | 12.2 | 0.00 | 0.00 | 0.00 | 37 | 1017.7 |
| 20260503180044 | 58 | 268 | 5.2 | 9.6 | 0.00 | 0.00 | 0.00 | 38 | 1017.7 |
| 20260503175513 | 57 | 307 | 3.5 | 11.3 | 0.00 | 0.00 | 0.00 | 38 | 1017.8 |
| 20260503175012 | 57 | 320 | 4.3 | 10.4 | 0.00 | 0.00 | 0.00 | 38 | 1017.8 |
| 20260503174545 | 57 | 278 | 3.5 | 12.2 | 0.00 | 0.00 | 0.00 | 40 | 1018.0 |
| 20260503174014 | 57 | 285 | 5.2 | 12.2 | 0.00 | 0.00 | 0.00 | 39 | 1017.9 |
| 20260503173513 | 57 | 322 | 3.5 | 12.2 | 0.00 | 0.00 | 0.00 | 39 | 1018.1 |
| 20260503173046 | 57 | 289 | 7.0 | 11.3 | 0.00 | 0.00 | 0.00 | 39 | 1017.9 |
| 20260503172513 | 57 | 315 | 5.2 | 13.0 | 0.00 | 0.00 | 0.00 | 39 | 1018.2 |
| 20260503172011 | 57 | 25 | 5.2 | 13.0 | 0.00 | 0.00 | 0.00 | 38 | 1018.2 |
| 20260503171533 | 57 | 325 | 3.5 | 8.7 | 0.00 | 0.00 | 0.00 | 40 | 1018.3 |
| 20260503171013 | 57 | 325 | 4.3 | 11.3 | 0.00 | 0.00 | 0.00 | 39 | 1018.3 |
| 20260503170512 | 57 | 327 | 5.2 | 11.3 | 0.00 | 0.00 | 0.00 | 40 | 1018.5 |
| 20260503151013 | 55 | 258 | 6.1 | 10.4 | 0.00 | 0.01 | 0.00 | 42 | 1018.4 |
| 20260503150517 | 55 | 250 | 6.1 | 13.0 | 0.00 | 0.01 | 0.00 | 41 | 1018.5 |
| 20260503131012 | 52 | 286 | 3.5 | 9.6 | 0.00 | 0.01 | 0.00 | 48 | 1017.9 |
| 20260503130511 | 52 | 344 | 4.3 | 11.3 | 0.00 | 0.01 | 0.00 | 48 | 1018.0 |
| 20260503110513 | 0 | 21.7 | 0.0 | 0.00 | 0.01 | 0.00 | 1017.0 | ||
| 20260503081556 | 54 | 22 | 4.3 | 11.3 | 0.00 | 0.01 | 0.00 | 60 | 1014.2 |
| 20260503081016 | 54 | 343 | 21.7 | 9.6 | 0.00 | 0.01 | 0.00 | 60 | 1014.0 |
| 20260503080514 | 54 | 360 | 6.1 | 9.6 | 0.00 | 0.01 | 0.00 | 60 | 1014.0 |
| 20260503072516 | 54 | 30 | 1.7 | 7.0 | 0.00 | 0.01 | 0.00 | 60 | 1013.5 |
| 20260503072016 | 54 | 296 | 2.6 | 9.6 | 0.00 | 0.01 | 0.00 | 59 | 1013.5 |
| 20260503071557 | 54 | 294 | 4.3 | 9.6 | 0.00 | 0.01 | 0.00 | 60 | 1013.5 |
| 20260503071016 | 54 | 331 | 1.7 | 10.4 | 0.00 | 0.01 | 0.00 | 60 | 1013.4 |
| 20260503070518 | 54 | 277 | 3.5 | 10.4 | 0.00 | 0.01 | 0.00 | 61 | 1013.3 |
| 20260503060104 | 53 | 269 | 0.0 | 1.7 | 0.00 | 0.01 | 0.00 | 64 | 1013.0 |
| 20260503055016 | 54 | 268 | 0.0 | 2.6 | 0.00 | 0.01 | 0.00 | 63 | 1012.9 |
| 20260503054553 | 54 | 329 | 0.0 | 1.7 | 0.00 | 0.01 | 0.00 | 63 | 1012.9 |
| 20260503054016 | 54 | 24 | 0.0 | 2.6 | 0.00 | 0.01 | 0.00 | 63 | 1013.0 |
| 20260503053517 | 54 | 307 | 0.9 | 2.6 | 0.00 | 0.01 | 0.00 | 62 | 1013.0 |
| 20260503053101 | 54 | 274 | 0.0 | 4.3 | 0.00 | 0.01 | 0.00 | 61 | 1013.2 |
| 20260503052515 | 54 | 348 | 0.0 | 4.3 | 0.00 | 0.01 | 0.00 | 61 | 1013.2 |
| 20260503052017 | 54 | 300 | 0.0 | 2.6 | 0.00 | 0.01 | 0.00 | 61 | 1013.3 |
| 20260503051550 | 54 | 327 | 0.9 | 2.6 | 0.00 | 0.01 | 0.00 | 60 | 1013.2 |
| 20260503051020 | 54 | 293 | 0.0 | 2.6 | 0.00 | 0.01 | 0.00 | 60 | 1013.0 |
| 20260503050519 | 54 | 311 | 0.0 | 2.6 | 0.00 | 0.01 | 0.00 | 60 | 1012.9 |
| 20260503050058 | 55 | 302 | 0.9 | 6.1 | 0.00 | 0.01 | 0.00 | 59 | 1013.0 |
| 20260503045519 | 55 | 324 | 0.0 | 6.1 | 0.00 | 0.01 | 0.00 | 59 | 1013.1 |
| 20260503045015 | 55 | 287 | 0.9 | 3.5 | 0.00 | 0.01 | 0.00 | 59 | 1013.1 |
| 20260503044612 | 55 | 317 | 0.9 | 3.5 | 0.00 | 0.01 | 0.00 | 59 | 1013.0 |
| 20260503044017 | 55 | 342 | 0.0 | 2.6 | 0.00 | 0.01 | 0.00 | 59 | 1013.1 |
| 20260503043516 | 55 | 349 | 0.9 | 2.6 | 0.00 | 0.01 | 0.00 | 58 | 1013.1 |
| 20260503043028 | 55 | 315 | 0.0 | 3.5 | 0.00 | 0.01 | 0.00 | 59 | 1013.1 |
| 20260503042507 | 55 | 289 | 0.9 | 3.5 | 0.00 | 0.01 | 0.00 | 59 | 1013.0 |
| 20260503042012 | 55 | 352 | 0.0 | 2.6 | 0.00 | 0.01 | 0.00 | 58 | 1013.2 |
| 20260503041526 | 55 | 304 | 0.0 | 4.3 | 0.00 | 0.01 | 0.00 | 58 | 1013.2 |
| 20260503041010 | 55 | 352 | 1.7 | 4.3 | 0.00 | 0.01 | 0.00 | 57 | 1013.2 |
| 20260503040511 | 55 | 27 | 0.9 | 4.3 | 0.00 | 0.01 | 0.00 | 58 | 1013.1 |
| 20260503040028 | 55 | 308 | 0.9 | 6.1 | 0.00 | 0.01 | 0.00 | 58 | 1013.1 |
| 20260503035511 | 55 | 262 | 0.0 | 5.2 | 0.00 | 0.01 | 0.01 | 59 | 1013.3 |
| 20260503035007 | 55 | 323 | 1.7 | 5.2 | 0.00 | 0.01 | 0.01 | 60 | 1013.2 |
| 20260503034532 | 55 | 320 | 0.0 | 3.5 | 0.00 | 0.01 | 0.01 | 59 | 1013.2 |
| 20260503034010 | 55 | 304 | 0.0 | 3.5 | 0.00 | 0.01 | 0.01 | 59 | 1013.3 |
| 20260503033514 | 55 | 291 | 0.0 | 1.7 | 0.00 | 0.01 | 0.01 | 59 | 1013.1 |
| 20260503033036 | 55 | 275 | 0.0 | 1.7 | 0.00 | 0.01 | 0.01 | 59 | 1013.1 |
| 20260503032507 | 55 | 317 | 0.0 | 3.5 | 0.00 | 0.01 | 0.01 | 60 | 1013.1 |
| 20260503032009 | 55 | 327 | 0.0 | 3.5 | 0.00 | 0.01 | 0.01 | 59 | 1013.0 |
| 20260503031530 | 56 | 343 | 0.0 | 4.3 | 0.00 | 0.01 | 0.01 | 60 | 1012.9 |
| 20260503031012 | 56 | 350 | 0.9 | 4.3 | 0.00 | 0.01 | 0.01 | 59 | 1012.8 |
| 20260503030510 | 56 | 9 | 1.7 | 4.3 | 0.00 | 0.01 | 0.01 | 60 | 1013.0 |
| 20260503030047 | 56 | 329 | 0.9 | 4.3 | 0.00 | 0.01 | 0.01 | 59 | 1013.1 |
| 20260503025511 | 56 | 348 | 0.9 | 4.3 | 0.00 | 0.01 | 0.01 | 60 | 1013.0 |
| 20260503025012 | 56 | 352 | 0.9 | 3.5 | 0.00 | 0.01 | 0.01 | 59 | 1013.1 |
| 20260503024533 | 56 | 296 | 0.9 | 3.5 | 0.00 | 0.01 | 0.01 | 60 | 1013.4 |
| 20260503024013 | 56 | 336 | 1.7 | 3.5 | 0.00 | 0.01 | 0.01 | 59 | 1013.4 |
| 20260503023511 | 56 | 294 | 0.9 | 3.5 | 0.00 | 0.01 | 0.01 | 59 | 1013.2 |
| 20260503023033 | 56 | 278 | 0.9 | 3.5 | 0.00 | 0.01 | 0.01 | 59 | 1013.2 |
| 20260503022510 | 56 | 334 | 0.0 | 2.6 | 0.00 | 0.01 | 0.01 | 59 | 1013.2 |
| 20260503022009 | 56 | 336 | 1.7 | 2.6 | 0.00 | 0.01 | 0.01 | 58 | 1013.3 |
| 20260503021528 | 56 | 9 | 0.9 | 3.5 | 0.00 | 0.01 | 0.01 | 58 | 1013.2 |
| 20260503021011 | 56 | 275 | 0.9 | 5.2 | 0.00 | 0.01 | 0.01 | 57 | 1013.2 |
| 20260503020511 | 56 | 294 | 0.9 | 5.2 | 0.00 | 0.01 | 0.01 | 57 | 1013.1 |
| 20260503020028 | 56 | 331 | 0.9 | 6.1 | 0.00 | 0.01 | 0.01 | 57 | 1013.2 |
| 20260503015510 | 56 | 304 | 0.9 | 4.3 | 0.00 | 0.01 | 0.01 | 57 | 1013.2 |
| 20260503015013 | 56 | 325 | 0.9 | 5.2 | 0.00 | 0.01 | 0.01 | 57 | 1013.3 |
| 20260503014530 | 56 | 33 | 0.9 | 5.2 | 0.00 | 0.01 | 0.01 | 56 | 1013.1 |
| 20260503014010 | 56 | 349 | 0.9 | 6.1 | 0.00 | 0.01 | 0.01 | 56 | 1013.2 |
| 20260503013511 | 56 | 345 | 0.0 | 6.1 | 0.00 | 0.01 | 0.01 | 56 | 1013.2 |
| 20260503013028 | 56 | 309 | 0.9 | 4.3 | 0.00 | 0.01 | 0.01 | 55 | 1013.0 |
| 20260503012508 | 56 | 302 | 1.7 | 4.3 | 0.00 | 0.01 | 0.01 | 55 | 1013.0 |
| 20260503012009 | 56 | 352 | 0.9 | 3.5 | 0.00 | 0.01 | 0.01 | 55 | 1013.0 |
| 20260503011528 | 56 | 340 | 1.7 | 4.3 | 0.00 | 0.01 | 0.01 | 55 | 1012.8 |
| 20260503011013 | 56 | 9 | 0.0 | 4.3 | 0.00 | 0.01 | 0.01 | 55 | 1012.5 |
| 20260503010514 | 56 | 321 | 1.7 | 4.3 | 0.00 | 0.01 | 0.01 | 54 | 1012.5 |
| 20260503010031 | 56 | 44 | 1.7 | 4.3 | 0.00 | 0.01 | 0.01 | 53 | 1012.8 |
| 20260503005511 | 56 | 296 | 0.9 | 7.0 | 0.00 | 0.01 | 0.01 | 54 | 1012.8 |
| 20260503005011 | 56 | 338 | 1.7 | 7.0 | 0.00 | 0.01 | 0.01 | 53 | 1012.7 |
| 20260503004530 | 56 | 304 | 0.9 | 6.1 | 0.00 | 0.01 | 0.01 | 53 | 1012.7 |
| 20260503004012 | 56 | 352 | 0.9 | 5.2 | 0.00 | 0.01 | 0.01 | 53 | 1012.5 |
| 20260503003511 | 56 | 341 | 0.9 | 7.8 | 0.00 | 0.01 | 0.01 | 52 | 1012.3 |
| 20260503003032 | 56 | 326 | 2.6 | 7.8 | 0.00 | 0.01 | 0.01 | 51 | 1012.6 |
| 20260503002510 | 56 | 12 | 0.9 | 4.3 | 0.00 | 0.01 | 0.01 | 52 | 1012.4 |
| 20260503002012 | 56 | 299 | 0.9 | 5.2 | 0.00 | 0.01 | 0.01 | 52 | 1012.4 |
| 20260503001528 | 56 | 350 | 0.9 | 7.8 | 0.00 | 0.01 | 0.01 | 52 | 1012.2 |
| 20260503001012 | 56 | 300 | 2.6 | 7.8 | 0.00 | 0.01 | 0.01 | 54 | 1012.3 |
| 20260503000509 | 56 | 352 | 1.7 | 7.8 | 0.00 | 0.01 | 0.01 | 55 | 1012.1 |